| time (UTC) | temp F | wind direction | speed knots | gust knots | rain 1hr in | rain 24hr in | rain mn in | humidity % | barometer mb |
| 20260504003216 | 58 | 107 | 0.9 | 3.5 | 0.00 | 0.00 | 0.00 | 83 | 1021.5 |
| 20260504002003 | 58 | 115 | 0.9 | 2.6 | 0.00 | 0.00 | 0.00 | 83 | 1021.6 |
| 20260504001004 | 58 | 109 | 0.9 | 1.7 | 0.00 | 0.00 | 0.00 | 82 | 1021.7 |
| 20260504000214 | 58 | 108 | 1.7 | 3.5 | 0.00 | 0.00 | 0.00 | 82 | 1021.8 |
| 20260503235004 | 59 | 131 | 1.7 | 3.5 | 0.00 | 0.00 | 0.00 | 82 | 1021.9 |
| 20260503234003 | 59 | 136 | 1.7 | 3.5 | 0.00 | 0.00 | 0.00 | 82 | 1022.0 |
| 20260503233003 | 59 | 135 | 1.7 | 3.5 | 0.00 | 0.00 | 0.00 | 82 | 1022.2 |
| 20260503232003 | 59 | 122 | 1.7 | 3.5 | 0.00 | 0.00 | 0.00 | 82 | 1022.2 |
| 20260503231003 | 59 | 132 | 1.7 | 3.5 | 0.00 | 0.00 | 0.00 | 81 | 1022.2 |
| 20260503230216 | 59 | 126 | 1.7 | 3.5 | 0.00 | 0.00 | 0.00 | 81 | 1022.2 |
| 20260503225003 | 59 | 147 | 1.7 | 3.5 | 0.00 | 0.00 | 0.00 | 81 | 1022.4 |
| 20260503224004 | 59 | 139 | 1.7 | 2.6 | 0.00 | 0.00 | 0.00 | 81 | 1022.5 |
| 20260503223004 | 59 | 138 | 0.9 | 2.6 | 0.00 | 0.00 | 0.00 | 81 | 1022.5 |
| 20260503222003 | 60 | 145 | 1.7 | 3.5 | 0.00 | 0.00 | 0.00 | 81 | 1022.5 |
| 20260503221003 | 60 | 142 | 1.7 | 3.5 | 0.00 | 0.00 | 0.00 | 81 | 1022.5 |
| 20260503220005 | 60 | 151 | 1.7 | 4.3 | 0.00 | 0.00 | 0.00 | 81 | 1022.4 |
| 20260503215003 | 60 | 151 | 1.7 | 4.3 | 0.00 | 0.00 | 0.00 | 81 | 1022.4 |
| 20260503214003 | 60 | 151 | 1.7 | 3.5 | 0.00 | 0.00 | 0.00 | 81 | 1022.3 |
| 20260503213003 | 60 | 153 | 1.7 | 4.3 | 0.00 | 0.00 | 0.00 | 81 | 1022.2 |
| 20260503212003 | 60 | 158 | 0.9 | 3.5 | 0.00 | 0.00 | 0.00 | 81 | 1022.2 |
| 20260503211003 | 60 | 200 | 1.7 | 3.5 | 0.00 | 0.00 | 0.00 | 81 | 1022.1 |
| 20260503210005 | 60 | 215 | 1.7 | 6.1 | 0.00 | 0.00 | 0.00 | 81 | 1022.2 |
| 20260503205213 | 60 | 220 | 1.7 | 3.5 | 0.00 | 0.00 | 0.00 | 80 | 1022.2 |
| 20260503204214 | 60 | 225 | 1.7 | 7.0 | 0.00 | 0.00 | 0.00 | 80 | 1022.2 |
| 20260503203003 | 60 | 222 | 2.6 | 6.1 | 0.00 | 0.00 | 0.00 | 80 | 1022.1 |
| 20260503202003 | 60 | 226 | 2.6 | 6.1 | 0.00 | 0.00 | 0.00 | 79 | 1022.0 |
| 20260503201004 | 61 | 218 | 1.7 | 6.1 | 0.00 | 0.00 | 0.00 | 78 | 1021.9 |
| 20260503200004 | 61 | 197 | 0.9 | 5.2 | 0.00 | 0.00 | 0.00 | 77 | 1021.9 |
| 20260503195004 | 61 | 211 | 1.7 | 4.3 | 0.00 | 0.00 | 0.00 | 77 | 1021.8 |
| 20260503194003 | 61 | 205 | 0.9 | 5.2 | 0.00 | 0.00 | 0.00 | 77 | 1021.7 |
| 20260503193003 | 61 | 209 | 1.7 | 4.3 | 0.00 | 0.00 | 0.00 | 77 | 1021.6 |
| 20260503192003 | 61 | 218 | 2.6 | 5.2 | 0.00 | 0.00 | 0.00 | 77 | 1021.6 |
| 20260503191003 | 61 | 224 | 2.6 | 6.1 | 0.00 | 0.00 | 0.00 | 77 | 1021.5 |
| 20260503190004 | 61 | 224 | 2.6 | 7.8 | 0.00 | 0.00 | 0.00 | 76 | 1021.5 |
| 20260503185003 | 62 | 228 | 1.7 | 6.1 | 0.00 | 0.00 | 0.00 | 75 | 1021.2 |
| 20260503184003 | 62 | 233 | 2.6 | 7.0 | 0.00 | 0.00 | 0.00 | 75 | 1021.0 |
| 20260503183004 | 63 | 234 | 2.6 | 7.8 | 0.00 | 0.00 | 0.00 | 74 | 1021.0 |
| 20260503182004 | 63 | 232 | 2.6 | 6.1 | 0.00 | 0.00 | 0.00 | 73 | 1020.9 |
| 20260503181004 | 64 | 235 | 2.6 | 7.0 | 0.00 | 0.00 | 0.00 | 72 | 1021.0 |
| 20260503180004 | 65 | 246 | 2.6 | 7.0 | 0.00 | 0.00 | 0.00 | 70 | 1020.8 |
| 20260503175215 | 66 | 243 | 3.5 | 6.1 | 0.00 | 0.00 | 0.00 | 70 | 1020.7 |
| 20260503174216 | 67 | 236 | 3.5 | 10.4 | 0.00 | 0.00 | 0.00 | 67 | 1020.5 |
| 20260503173003 | 69 | 227 | 1.7 | 7.8 | 0.00 | 0.00 | 0.00 | 63 | 1020.3 |
| 20260503172003 | 70 | 238 | 1.7 | 6.1 | 0.00 | 0.00 | 0.00 | 61 | 1020.3 |
| 20260503171003 | 70 | 237 | 1.7 | 6.1 | 0.00 | 0.00 | 0.00 | 60 | 1020.3 |
| 20260503151003 | 72 | 238 | 4.3 | 8.7 | 0.00 | 0.00 | 0.00 | 56 | 1020.6 |
| 20260503140217 | 72 | 246 | 6.1 | 10.4 | 0.00 | 0.00 | 0.00 | 54 | 1021.2 |
| 20260503131003 | 72 | 239 | 5.2 | 12.2 | 0.00 | 0.00 | 0.00 | 54 | 1021.5 |
| 20260503100214 | 67 | 280 | 1.7 | 5.2 | 0.00 | 0.00 | 0.00 | 63 | 1022.7 |
| 20260503081003 | 62 | 264 | 1.7 | 4.3 | 0.00 | 0.00 | 0.00 | 72 | 1023.6 |
| 20260503080216 | 61 | 252 | 1.7 | 4.3 | 0.00 | 0.00 | 0.00 | 71 | 1023.5 |
| 20260503072003 | 60 | 74 | 0.9 | 2.6 | 0.00 | 0.00 | 0.00 | 73 | 1023.9 |
| 20260503071004 | 59 | 253 | 0.9 | 1.7 | 0.00 | 0.00 | 0.00 | 73 | 1024.0 |
| 20260503055003 | 52 | 29 | 0.9 | 3.5 | 0.00 | 0.00 | 0.00 | 79 | 1024.0 |
| 20260503054003 | 52 | 331 | 0.0 | 2.6 | 0.00 | 0.00 | 0.00 | 80 | 1023.8 |
| 20260503053003 | 52 | 255 | 0.9 | 0.9 | 0.00 | 0.00 | 0.00 | 80 | 1023.8 |
| 20260503052004 | 52 | 69 | 0.0 | 1.7 | 0.00 | 0.00 | 0.00 | 79 | 1023.6 |
| 20260503051003 | 53 | 61 | 0.9 | 0.9 | 0.00 | 0.00 | 0.00 | 78 | 1023.6 |
| 20260503050218 | 52 | 51 | 0.9 | 1.7 | 0.00 | 0.00 | 0.00 | 80 | 1023.6 |
| 20260503045003 | 51 | 3 | 1.7 | 4.3 | 0.00 | 0.00 | 0.00 | 80 | 1023.7 |
| 20260503044003 | 50 | 288 | 0.9 | 2.6 | 0.00 | 0.00 | 0.00 | 82 | 1023.7 |
| 20260503043003 | 49 | 62 | 1.7 | 3.5 | 0.00 | 0.00 | 0.00 | 83 | 1023.4 |
| 20260503042003 | 49 | 65 | 1.7 | 3.5 | 0.00 | 0.00 | 0.00 | 83 | 1023.3 |
| 20260503041004 | 49 | 63 | 0.9 | 2.6 | 0.00 | 0.00 | 0.00 | 82 | 1023.4 |
| 20260503040003 | 50 | 46 | 0.0 | 0.9 | 0.00 | 0.00 | 0.00 | 81 | 1023.5 |
| 20260503035004 | 50 | 295 | 0.0 | 0.9 | 0.00 | 0.00 | 0.00 | 81 | 1023.4 |
| 20260503034004 | 50 | 34 | 0.0 | 0.9 | 0.00 | 0.00 | 0.00 | 80 | 1023.4 |
| 20260503033003 | 51 | 242 | 0.0 | 0.9 | 0.00 | 0.00 | 0.00 | 80 | 1023.4 |
| 20260503032003 | 51 | 252 | 0.9 | 1.7 | 0.00 | 0.00 | 0.00 | 80 | 1023.3 |
| 20260503031003 | 51 | 266 | 0.0 | 1.7 | 0.00 | 0.00 | 0.00 | 81 | 1023.3 |
| 20260503030004 | 50 | 0 | 0.0 | 0.0 | 0.00 | 0.00 | 0.00 | 82 | 1023.3 |
| 20260503025215 | 50 | 0 | 0.0 | 0.0 | 0.00 | 0.00 | 0.00 | 82 | 1023.4 |
| 20260503024003 | 50 | 0 | 0.0 | 0.0 | 0.00 | 0.00 | 0.00 | 81 | 1023.4 |
| 20260503023003 | 50 | 74 | 0.0 | 0.9 | 0.00 | 0.00 | 0.00 | 81 | 1023.4 |
| 20260503022003 | 50 | 74 | 0.0 | 0.9 | 0.00 | 0.00 | 0.00 | 80 | 1023.4 |
| 20260503021004 | 51 | 0 | 0.0 | 0.0 | 0.00 | 0.00 | 0.00 | 79 | 1023.5 |
| 20260503020004 | 52 | 0 | 0.0 | 0.0 | 0.00 | 0.00 | 0.00 | 79 | 1023.3 |
| 20260503015003 | 51 | 0 | 0.0 | 0.0 | 0.00 | 0.00 | 0.00 | 80 | 1023.5 |
| 20260503014003 | 51 | 0 | 0.0 | 0.0 | 0.00 | 0.00 | 0.00 | 80 | 1023.6 |
| 20260503013003 | 51 | 52 | 0.0 | 1.7 | 0.00 | 0.00 | 0.00 | 80 | 1023.5 |
| 20260503012004 | 52 | 0 | 0.0 | 0.0 | 0.00 | 0.00 | 0.00 | 77 | 1023.4 |
| 20260503011004 | 53 | 0 | 0.0 | 0.0 | 0.00 | 0.00 | 0.00 | 76 | 1023.5 |
| 20260503010004 | 53 | 0 | 0.0 | 0.0 | 0.00 | 0.00 | 0.00 | 74 | 1023.6 |
| 20260503005003 | 56 | 112 | 0.0 | 1.7 | 0.00 | 0.00 | 0.00 | 72 | 1023.6 |
| 20260503004003 | 55 | 121 | 0.0 | 0.9 | 0.00 | 0.00 | 0.00 | 73 | 1023.8 |